• In France
  • List of Countries
  • For 7 days
  • Water Temperature
  • Satellite Maps
  • Weather Map
  • Weather Widgets
  • user-avatar
    Login

    Hourly Weather Kinshasa

    Today, 21 October, Sunday

    Time Temperature Precipitation Wind Pressure Humidity
    00:00 +23°C° 0.2 mm 1 mps 706 mmHg 88%
    01:00 +21°C° 0.2 mm 0 mps 706 mmHg 91%
    02:00 +21°C° 0 mm 0 mps 706 mmHg 91%
    03:00 +20°C° 0 mm 0 mps 706 mmHg 92%
    04:00 +20°C° 0 mm 0 mps 706 mmHg 92%
    05:00 +21°C° 0 mm 0 mps 706 mmHg 91%
    06:00 +21°C° 0 mm 0 mps 706 mmHg 90%
    07:00 +22°C° 0 mm 0 mps 707 mmHg 89%
    08:00 +26°C° 0.1 mm 1 mps 707 mmHg 80%
    09:00 +29°C° 0.1 mm 1 mps 707 mmHg 70%
    10:00 +31°C° 0.1 mm 2 mps 707 mmHg 61%
    11:00 +32°C° 0.1 mm 2 mps 707 mmHg 58%
    12:00 +32°C° 0.1 mm 1 mps 706 mmHg 56%
    13:00 +33°C° 0.1 mm 1 mps 705 mmHg 53%
    14:00 +33°C° 0 mm 1 mps 705 mmHg 55%
    15:00 +33°C° 0 mm 1 mps 705 mmHg 57%
    16:00 +33°C° 0 mm 1 mps 705 mmHg 60%
    17:00 +31°C° 0 mm 1 mps 705 mmHg 65%
    18:00 +29°C° 0 mm 1 mps 705 mmHg 69%
    19:00 +25°C° 0 mm 0 mps 705 mmHg 74%
    20:00 +24°C° 0.3 mm 0 mps 706 mmHg 77%
    21:00 +23°C° 0.3 mm 0 mps 706 mmHg 80%
    22:00 +23°C° 0.3 mm 0 mps 707 mmHg 82%
    23:00 +22°C° 0.3 mm 0 mps 706 mmHg 86%

    Tomorrow, 22 October, Monday

    Time Temperature Precipitation Wind Pressure Humidity
    00:00 +22°C° 0.3 mm 0 mps 706 mmHg 90%
    01:00 +21°C° 0.3 mm 0 mps 706 mmHg 93%
    02:00 +21°C° 0.1 mm 0 mps 706 mmHg 94%
    03:00 +21°C° 0.1 mm 0 mps 706 mmHg 95%
    04:00 +20°C° 0.1 mm 0 mps 705 mmHg 96%
    05:00 +23°C° 0 mm 1 mps 706 mmHg 95%
    06:00 +24°C° 0 mm 1 mps 706 mmHg 94%
    07:00 +24°C° 0 mm 1 mps 707 mmHg 93%
    08:00 +26°C° 0.5 mm 1 mps 707 mmHg 85%
    09:00 +27°C° 0.5 mm 0 mps 707 mmHg 77%
    10:00 +29°C° 0.5 mm 0 mps 707 mmHg 68%
    11:00 +32°C° 0.1 mm 1 mps 707 mmHg 63%
    12:00 +33°C° 0.1 mm 1 mps 706 mmHg 58%
    13:00 +35°C° 0.1 mm 2 mps 705 mmHg 53%
    14:00 +33°C° 0 mm 1 mps 705 mmHg 56%
    15:00 +33°C° 0 mm 1 mps 705 mmHg 59%
    16:00 +33°C° 0 mm 1 mps 704 mmHg 62%
    17:00 +31°C° 0.1 mm 1 mps 705 mmHg 67%
    18:00 +27°C° 0.1 mm 0 mps 705 mmHg 73%
    19:00 +25°C° 0.1 mm 0 mps 705 mmHg 78%
    20:00 +26°C° 0.9 mm 1 mps 706 mmHg 84%
    21:00 +25°C° 0.9 mm 1 mps 706 mmHg 89%
    22:00 +24°C° 0.9 mm 2 mps 707 mmHg 95%
    23:00 +23°C° 0.1 mm 1 mps 706 mmHg 95%

    Day after tomorrow, 23 October, Tuesday

    Time Temperature Precipitation Wind Pressure Humidity
    00:00 +23°C° 0.1 mm 1 mps 706 mmHg 96%
    01:00 +23°C° 0.1 mm 1 mps 706 mmHg 96%
    02:00 +23°C° 0 mm 1 mps 705 mmHg 96%
    03:00 +22°C° 0 mm 1 mps 705 mmHg 97%
    04:00 +22°C° 0 mm 1 mps 705 mmHg 97%
    05:00 +23°C° 0.2 mm 1 mps 706 mmHg 97%
    06:00 +23°C° 0.2 mm 1 mps 707 mmHg 96%
    07:00 +24°C° 0.2 mm 1 mps 708 mmHg 96%
    08:00 +25°C° 0.6 mm 1 mps 708 mmHg 91%
    09:00 +27°C° 0.6 mm 1 mps 708 mmHg 87%
    10:00 +29°C° 0.6 mm 1 mps 708 mmHg 83%
    11:00 +30°C° 0.5 mm 1 mps 708 mmHg 74%
    12:00 +31°C° 0.5 mm 1 mps 707 mmHg 65%
    13:00 +33°C° 0.5 mm 1 mps 707 mmHg 56%
    14:00 +32°C° 0 mm 1 mps 706 mmHg 59%
    15:00 +32°C° 0 mm 1 mps 706 mmHg 62%
    16:00 +31°C° 0 mm 1 mps 705 mmHg 66%
    17:00 +30°C° 0 mm 1 mps 706 mmHg 70%
    18:00 +28°C° 0 mm 1 mps 706 mmHg 74%
    19:00 +26°C° 0 mm 1 mps 706 mmHg 78%
    20:00 +26°C° 0 mm 1 mps 706 mmHg 80%
    21:00 +25°C° 0 mm 1 mps 707 mmHg 82%
    22:00 +25°C° 0 mm 1 mps 707 mmHg 83%
    23:00 +24°C° 0 mm 1 mps 707 mmHg 86%

    24 October, Wednesday

    Time Temperature Precipitation Wind Pressure Humidity
    00:00 +24°C° 0 mm 1 mps 706 mmHg 88%
    01:00 +23°C° 0 mm 1 mps 706 mmHg 90%
    02:00 +23°C° 1.1 mm 1 mps 706 mmHg 93%
    03:00 +23°C° 1.1 mm 1 mps 706 mmHg 96%
    04:00 +22°C° 1.1 mm 1 mps 706 mmHg 98%
    05:00 +22°C° 0.2 mm 1 mps 707 mmHg 98%
    06:00 +23°C° 0.2 mm 1 mps 708 mmHg 98%
    07:00 +23°C° 0.2 mm 2 mps 708 mmHg 97%
    08:00 +25°C° 0.4 mm 1 mps 708 mmHg 92%
    09:00 +26°C° 0.4 mm 1 mps 709 mmHg 86%
    10:00 +28°C° 0.4 mm 1 mps 709 mmHg 81%
    11:00 +30°C° 0.4 mm 1 mps 708 mmHg 73%
    12:00 +30°C° 0.4 mm 0 mps 708 mmHg 64%
    13:00 +31°C° 0.4 mm 0 mps 707 mmHg 56%
    14:00 +31°C° 0 mm 0 mps 707 mmHg 58%
    15:00 +30°C° 0 mm 0 mps 706 mmHg 60%
    16:00 +29°C° 0 mm 0 mps 706 mmHg 63%
    17:00 +29°C° 0.1 mm 1 mps 706 mmHg 71%
    18:00 +27°C° 0.1 mm 1 mps 706 mmHg 79%
    19:00 +25°C° 0.1 mm 1 mps 707 mmHg 87%
    20:00 +24°C° 0.3 mm 1 mps 707 mmHg 90%
    21:00 +24°C° 0.3 mm 1 mps 707 mmHg 92%
    22:00 +23°C° 0.3 mm 1 mps 708 mmHg 95%
    23:00 +23°C° 0.4 mm 1 mps 707 mmHg 95%

    25 October, Thursday

    Time Temperature Precipitation Wind Pressure Humidity
    00:00 +23°C° 0.4 mm 1 mps 707 mmHg 96%
    01:00 +23°C° 0.4 mm 1 mps 706 mmHg 97%
    02:00 +23°C° 0 mm 1 mps 706 mmHg 97%
    03:00 +22°C° 0 mm 1 mps 706 mmHg 96%
    04:00 +22°C° 0 mm 1 mps 706 mmHg 96%
    05:00 +23°C° 0 mm 1 mps 706 mmHg 96%
    06:00 +23°C° 0 mm 1 mps 707 mmHg 96%
    07:00 +23°C° 0 mm 1 mps 708 mmHg 95%
    08:00 +24°C° 0.3 mm 1 mps 708 mmHg 91%
    09:00 +26°C° 0.3 mm 1 mps 708 mmHg 87%
    10:00 +27°C° 0.3 mm 1 mps 708 mmHg 82%
    11:00 +28°C° 0.7 mm 1 mps 708 mmHg 76%
    12:00 +29°C° 0.7 mm 1 mps 707 mmHg 69%
    13:00 +31°C° 0.7 mm 1 mps 706 mmHg 63%
    14:00 +30°C° 0 mm 1 mps 706 mmHg 64%
    15:00 +30°C° 0 mm 1 mps 706 mmHg 66%
    16:00 +30°C° 0 mm 1 mps 705 mmHg 67%
    17:00 +28°C° 0 mm 1 mps 706 mmHg 71%
    18:00 +27°C° 0 mm 1 mps 706 mmHg 75%
    19:00 +24°C° 0 mm 0 mps 706 mmHg 79%
    20:00 +23°C° 0 mm 0 mps 706 mmHg 80%
    21:00 +23°C° 0 mm 0 mps 706 mmHg 81%
    22:00 +23°C° 0 mm 0 mps 707 mmHg 81%
    23:00 +22°C° 0 mm 0 mps 706 mmHg 83%

    26 October, Friday

    Time Temperature Precipitation Wind Pressure Humidity
    00:00 +24°C° 0 mm 1 mps 706 mmHg 85%
    01:00 +24°C° 0 mm 1 mps 705 mmHg 87%
    02:00 +23°C° 0 mm 1 mps 705 mmHg 89%
    03:00 +21°C° 0 mm 0 mps 705 mmHg 91%
    04:00 +20°C° 0 mm 0 mps 705 mmHg 93%
    05:00 +21°C° 0 mm 0 mps 706 mmHg 91%
    06:00 +22°C° 0 mm 0 mps 706 mmHg 88%
    07:00 +22°C° 0 mm 0 mps 707 mmHg 86%
    08:00 +25°C° 0 mm 0 mps 707 mmHg 77%
    09:00 +28°C° 0 mm 0 mps 708 mmHg 68%
    10:00 +31°C° 0 mm 0 mps 708 mmHg 59%
    11:00 +31°C° 0.3 mm 0 mps 707 mmHg 57%
    12:00 +33°C° 0.3 mm 1 mps 706 mmHg 55%
    13:00 +34°C° 0.3 mm 1 mps 705 mmHg 53%
    14:00 +32°C° 0.2 mm 1 mps 705 mmHg 59%
    15:00 +31°C° 0.2 mm 1 mps 705 mmHg 65%
    16:00 +28°C° 0.2 mm 0 mps 705 mmHg 71%
    17:00 +28°C° 0.8 mm 1 mps 705 mmHg 77%
    18:00 +27°C° 0.8 mm 1 mps 705 mmHg 83%
    19:00 +25°C° 0.8 mm 1 mps 706 mmHg 89%
    20:00 +25°C° 0 mm 1 mps 706 mmHg 90%
    21:00 +22°C° 0 mm 0 mps 706 mmHg 91%
    22:00 +22°C° 0 mm 0 mps 706 mmHg 92%
    23:00 +22°C° 1.7 mm 0 mps 706 mmHg 94%
    Show more